Wetbulb
56.37 56.52 62.13 68.32 68.82 68.80 69.53 70.68 70.74 71.17 70.72 71.49 71.85 72.34 72.46 72.33 72.06 71.89 72.00 72.24 72.49 72.38 72.54 72.65 72.57 72.28 72.12 72.28 72.07 72.11 72.00 71.89 71.49 71.24 70.99 70.69 71.09 71.70 71.58 71.07 70.44 69.25 71.67
53.64 56.86 62.32 68.11 69.61 69.05 68.85 70.20 70.72 70.86 71.30 71.34 71.78 72.09 72.10 71.93 71.99 71.84 72.10 72.31 72.29 72.26 72.27 72.16 72.07 72.06 71.91 71.77 71.49 71.27 71.49 71.17 70.85 70.62 69.85 69.24 69.68 71.24 71.22 71.42 70.71 68.97 70.85
55.38 56.84 61.49 68.98 68.99 68.81 68.87 70.38 70.54 70.61 71.04 70.79 70.87 71.46 71.74 71.52 71.58 71.52 71.56 71.70 71.67 71.90 72.00 71.76 71.31 71.18 71.17 71.17 71.44 71.35 71.35 71.09 70.56 70.32 69.54 68.00 68.37 70.92 70.62 71.43 71.09 70.37 69.93
54.33 57.01 63.82 69.37 68.93 68.79 69.33 70.32 70.36 70.51 70.51 70.74 70.63 71.08 71.04 71.27 71.41 71.18 70.92 70.71 70.79 71.12 70.95 70.38 70.45 70.53 71.21 71.33 71.19 71.15 70.86 70.14 69.37 68.82 67.63 67.74 67.97 70.72 70.61 70.66 70.70 70.63 70.43
55.61 57.99 66.54 69.24 69.59 69.61 70.23 70.35 70.44 70.24 70.24 70.14 70.14 70.35 70.38 70.36 70.04 70.10 70.51 70.10 69.91 69.67 69.52 69.48 69.85 71.02 71.67 71.33 70.53 70.42 69.77 68.59 67.25 66.35 66.04 66.91 67.21 69.21 70.23 70.01 70.02 70.68 70.26
55.39 58.77 67.22 69.05 69.56 69.53 69.86 69.63 69.78 69.75 69.70 69.52 69.61 69.98 70.08 69.93 70.11 69.73 69.39 68.76 68.34 68.04 67.81 67.96 70.26 70.62 70.13 69.42 69.44 68.88 67.67 66.43 64.91 63.72 64.81 67.42 67.02 70.09 70.64 70.15 69.60 70.52 70.37
55.28 57.60 65.22 68.53 68.95 69.07 69.11 69.19 69.01 68.91 68.65 68.19 68.08 68.57 68.91 68.86 68.66 68.29 67.78 67.24 66.79 66.69 66.59 67.65 69.92 69.57 68.34 67.67 67.36 66.78 65.96 64.86 62.87 62.94 63.71 65.74 66.96 70.35 70.39 70.15 70.09 69.41 69.78
53.74 54.86 58.78 66.29 67.69 68.25 68.27 68.26 68.12 68.01 67.92 67.29 66.66 66.98 67.31 67.22 66.75 66.13 65.65 65.42 65.42 65.59 65.36 67.53 68.68 67.39 66.58 66.63 66.56 66.05 65.20 64.65 63.66 63.64 63.76 65.02 69.07 69.62 69.77 69.93 69.92 69.61 69.30
51.76 51.76 54.22 55.98 63.72 65.68 66.21 66.14 65.98 65.89 65.64 65.67 65.35 64.89 64.44 64.27 64.05 63.77 63.32 63.15 63.35 63.41 63.36 64.05 64.74 64.97 65.43 65.65 64.68 63.45 62.59 62.41 61.77 64.27 65.09 65.09 68.59 69.43 69.84 69.47 69.34 69.45 69.24
51.02 50.49 51.85 53.25 55.51 57.75 60.87 63.48 63.02 62.64 62.30 62.10 61.17 60.37 59.99 60.57 60.65 60.55 60.10 60.37 60.66 60.68 60.94 61.39 61.96 62.10 62.79 62.96 61.75 60.45 59.87 60.21 60.40 62.39 65.07 65.94 68.24 68.80 68.95 68.73 68.77 69.11 69.24
48.54 48.54 49.71 51.01 51.45 54.12 55.71 58.25 59.58 60.12 59.22 57.41 53.75 51.65 47.69 45.12 46.79 51.70 57.60 58.06 57.78 58.00 57.89 58.33 59.49 59.86 59.74 59.54 58.89 57.47 56.24 55.21 57.85 59.92 63.36 66.92 67.76 68.50 68.54 68.22 67.99 68.07 68.51
44.84 45.62 47.72 48.22 47.45 44.99 45.96 43.93 45.56 48.56 47.70 47.32 44.80 44.08 43.33 44.86 46.83 48.01 51.86 54.39 54.39 54.16 54.32 54.60 54.24 53.57 50.98 49.85 50.72 51.78 49.04 51.43 54.99 57.33 61.04 65.11 66.14 67.26 67.53 67.33 67.32 67.51 67.46
43.01 43.78 44.77 44.67 42.87 41.92 40.95 40.61 41.56 41.40 41.55 41.55 41.37 41.50 41.29 40.92 40.27 40.01 39.76 40.05 40.93 42.73 40.78 42.36 42.99 43.02 47.36 49.88 48.82 47.97 47.17 48.21 50.95 53.71 58.76 62.62 65.02 66.62 66.69 66.54 65.97 65.75 65.63
42.27 42.65 41.71 41.73 40.79 40.86 41.36 40.05 40.14 40.05 40.05 39.49 39.22 39.32 38.53 38.02 37.72 37.70 37.56 37.65 38.04 38.89 38.37 39.84 40.61 42.36 43.66 46.84 46.01 43.38 43.19 43.91 46.12 49.53 53.84 59.00 61.15 63.93 65.63 65.29 64.52 64.02 63.99
41.26 41.85 40.92 40.14 39.59 38.61 38.25 38.41 38.88 38.73 38.31 38.10 37.71 37.50 36.81 34.05 33.01 34.00 34.02 35.66 35.46 36.43 37.43 36.88 38.19 39.99 39.89 40.03 39.75 39.02 38.29 38.46 40.06 41.46 45.84 54.74 56.39 59.15 61.28 63.19 62.95 62.57 62.11
40.47 39.87 39.47 38.93 37.82 37.73 36.34 36.04 35.57 36.28 36.12 36.31 35.87 35.74 34.30 32.86 32.63 32.64 32.13 31.94 31.57 31.80 32.03 33.32 33.05 35.32 34.76 36.03 35.11 34.88 34.20 35.16 35.19 35.20 36.20 41.19 52.03 54.08 56.69 58.27 59.76 59.57 59.55
39.82 38.80 38.39 37.32 37.04 36.14 33.87 33.76 33.54 34.63 34.06 34.12 33.74 33.09 33.02 32.67 31.53 31.21 31.21 30.54 29.86 30.40 31.59 33.38 33.06 34.42 34.62 34.81 32.80 32.95 33.12 31.54 33.13 33.60 34.20 34.50 36.23 48.47 51.61 53.64 56.15 56.14 56.15
38.00 37.53 38.02 38.11 35.73 34.69 32.81 32.53 33.17 32.43 32.27 32.26 32.13 32.38 32.68 32.42 31.36 30.66 30.72 29.50 29.59 30.01 30.41 31.10 31.59 31.93 31.44 32.16 30.61 30.80 30.90 32.39 31.62 31.59 33.05 33.12 33.24 34.38 42.71 48.63 51.76 52.58 52.29
37.69 36.61 35.96 35.36 34.19 32.91 32.14 31.88 31.32 30.82 30.70 30.66 30.83 30.94 31.38 32.00 31.49 30.67 29.97 29.14 29.75 29.88 29.03 31.92 29.05 31.06 31.50 30.90 32.02 30.39 29.74 29.70 30.69 32.71 31.09 31.51 32.61 31.71 32.36 42.36 45.17 46.47 47.68
36.37 35.88 35.16 34.69 33.10 32.48 31.61 30.61 29.79 29.94 29.21 29.71 29.55 30.04 30.84 30.83 30.47 30.07 29.32 29.37 29.63 30.00 29.14 28.91 29.45 28.21 28.43 30.38 33.02 30.53 29.43 29.68 29.73 29.06 29.39 32.00 30.56 29.96 29.93 30.91 31.00 35.12 43.83
33.73 33.88 33.64 32.43 32.08 31.91 30.70 29.25 28.89 26.73 27.24 27.93 28.98 30.04 29.80 30.06 30.23 28.88 28.45 28.21 28.28 28.99 27.54 28.62 27.74 29.27 27.41 27.63 29.02 28.64 28.61 28.79 28.07 28.19 28.89 28.86 29.84 30.08 29.56 29.48 29.75 29.77 31.52
31.93 32.05 31.97 32.07 32.13 32.08 31.19 28.47 27.81 27.45 25.95 26.86 28.04 28.77 29.54 29.42 29.31 29.00 27.76 26.99 26.93 27.38 26.62 26.85 27.01 26.11 26.45 26.35 27.10 26.85 25.02 26.95 27.22 28.56 28.14 29.30 27.19 28.95 29.33 30.07 28.99 29.78 29.43
30.87 30.97 31.66 31.64 32.22 32.11 30.81 29.25 27.81 28.02 27.26 26.41 26.27 26.64 27.73 28.83 28.81 28.06 27.17 26.74 26.31 26.42 25.30 25.19 26.09 26.47 24.84 25.55 26.29 26.39 23.92 24.42 23.66 27.26 27.06 26.84 26.59 26.58 27.15 28.67 29.08 29.69 29.65
30.48 31.32 31.10 31.37 31.81 31.45 31.32 29.99 28.45 27.79 26.96 25.99 25.05 25.88 26.84 28.00 27.93 28.27 27.84 27.17 26.54 26.34 25.52 25.78 26.67 25.32 26.08 24.50 25.45 27.88 25.55 25.16 23.04 22.00 25.13 25.77 26.43 27.19 25.88 27.08 27.47 28.51 28.85
30.44 29.98 30.29 30.36 31.60 31.09 30.99 30.44 29.14 27.23 25.08 25.10 25.44 25.88 26.70 27.60 28.14 28.14 27.73 26.73 26.22 26.02 25.11 25.00 24.83 24.89 25.34 24.68 24.68 24.60 24.53 24.42 24.37 23.89 21.75 22.88 24.09 25.05 25.77 25.87 26.27 26.75 28.21
29.91 29.22 29.20 28.90 28.84 30.63 30.43 29.80 28.87 27.59 26.86 26.24 25.91 25.35 25.66 26.31 26.85 27.58 28.03 27.14 27.03 26.41 25.81 25.70 25.57 25.77 25.60 25.79 25.86 25.71 25.07 24.12 23.70 23.17 21.02 20.31 20.15 22.22 24.19 25.22 25.11 25.50 26.79
MSLP
1015.19 1015.34 1015.06 1014.52 1014.44 1014.90 1014.73 1014.52 1014.54 1014.45 1014.57 1014.61 1014.79 1014.88 1014.84 1015.07 1015.21 1015.23 1015.08 1015.42 1015.47 1015.59 1015.57 1015.70 1015.77 1015.98 1016.16 1016.36 1016.51 1016.68 1016.79 1016.94 1017.10 1017.27 1017.44 1017.45 1017.46 1017.48 1017.61 1017.69 1017.74 1017.81 1017.84
1015.39 1015.16 1014.69 1014.44 1014.43 1014.51 1014.68 1014.67 1014.69 1014.65 1014.61 1014.72 1014.88 1014.96 1015.03 1015.38 1015.57 1015.53 1015.48 1015.65 1015.80 1015.84 1016.06 1016.19 1016.24 1016.42 1016.69 1016.85 1017.02 1017.24 1017.41 1017.49 1017.67 1017.69 1017.90 1017.97 1018.03 1017.96 1018.03 1018.07 1018.11 1018.16 1018.22
1015.44 1015.19 1014.79 1014.32 1014.43 1014.62 1014.67 1015.01 1014.92 1014.83 1014.74 1015.02 1015.20 1015.31 1015.50 1015.76 1015.88 1016.01 1016.00 1016.10 1016.28 1016.35 1016.47 1016.63 1016.87 1017.00 1017.04 1017.29 1017.41 1017.70 1017.86 1018.03 1018.22 1018.28 1018.30 1018.36 1018.39 1018.41 1018.49 1018.52 1018.54 1018.55 1018.65
1015.59 1015.41 1014.65 1014.03 1014.25 1014.81 1014.86 1015.03 1014.99 1015.16 1015.11 1015.27 1015.48 1015.71 1015.80 1016.17 1016.21 1016.38 1016.62 1016.93 1016.88 1017.02 1017.24 1017.27 1017.39 1017.26 1017.33 1017.58 1017.92 1018.18 1018.43 1018.57 1018.69 1018.77 1018.74 1018.76 1018.62 1018.59 1018.72 1018.84 1018.97 1019.10 1018.98
1015.16 1015.28 1014.62 1014.26 1014.19 1014.77 1015.12 1015.05 1015.23 1015.46 1015.44 1015.71 1015.75 1015.95 1016.18 1016.33 1016.77 1016.93 1017.13 1017.53 1017.57 1017.69 1017.89 1017.91 1017.86 1017.72 1017.83 1018.06 1018.38 1018.66 1018.92 1019.08 1019.14 1019.17 1019.24 1019.21 1019.10 1019.03 1019.13 1019.29 1019.36 1019.32 1019.41
1015.44 1015.04 1014.60 1014.39 1014.46 1014.72 1015.25 1015.38 1015.46 1015.73 1015.90 1015.94 1016.20 1016.31 1016.45 1016.68 1017.13 1017.62 1017.58 1017.92 1018.06 1018.31 1018.34 1018.47 1018.25 1018.25 1018.44 1018.63 1018.93 1019.14 1019.39 1019.57 1019.55 1019.63 1019.66 1019.60 1019.59 1019.48 1019.43 1019.61 1019.70 1019.65 1019.82
1015.95 1015.26 1014.62 1014.67 1014.76 1015.02 1015.27 1015.71 1015.76 1015.98 1016.24 1016.69 1016.87 1017.07 1017.04 1017.28 1017.58 1018.02 1018.24 1018.64 1018.78 1018.76 1018.86 1018.83 1018.68 1018.87 1019.09 1019.38 1019.59 1019.84 1020.01 1020.04 1020.13 1020.08 1020.06 1019.97 1019.86 1019.80 1019.85 1019.98 1019.97 1020.09 1020.21
1016.44 1015.99 1015.38 1015.07 1015.19 1015.26 1015.63 1015.86 1016.15 1016.41 1016.59 1017.03 1017.45 1017.74 1017.88 1017.99 1018.34 1018.61 1019.00 1019.13 1019.18 1019.23 1019.29 1019.27 1019.28 1019.62 1019.94 1020.11 1020.22 1020.33 1020.54 1020.50 1020.54 1020.65 1020.58 1020.43 1020.14 1020.09 1020.08 1020.23 1020.34 1020.49 1020.58
1016.68 1016.55 1016.15 1016.04 1015.83 1015.92 1016.20 1016.43 1016.68 1016.83 1017.30 1017.77 1018.22 1018.47 1018.85 1018.93 1019.03 1019.24 1019.52 1019.64 1019.71 1019.87 1019.85 1019.89 1020.09 1020.27 1020.40 1020.64 1020.97 1021.04 1021.06 1021.01 1021.04 1021.12 1021.07 1020.90 1020.66 1020.66 1020.58 1020.63 1020.68 1020.79 1020.95
1016.70 1017.03 1016.49 1016.59 1016.74 1016.75 1016.92 1017.12 1017.30 1017.66 1018.04 1018.59 1019.16 1019.39 1019.56 1019.69 1019.80 1019.89 1020.01 1020.11 1020.22 1020.36 1020.47 1020.56 1020.67 1020.90 1021.17 1021.40 1021.57 1021.73 1021.62 1021.51 1021.80 1021.77 1021.60 1021.49 1021.17 1021.18 1021.16 1021.16 1021.26 1021.26 1021.24
1017.20 1017.25 1017.16 1017.08 1017.17 1017.39 1017.52 1018.04 1018.17 1018.40 1018.87 1019.30 1019.94 1020.24 1020.53 1020.69 1020.77 1020.60 1020.60 1020.60 1020.70 1020.80 1020.96 1021.21 1021.41 1021.49 1021.82 1022.14 1022.40 1022.42 1022.37 1022.56 1022.50 1022.58 1022.34 1021.92 1021.67 1021.65 1021.74 1021.72 1021.80 1021.75 1021.75
1017.16 1017.40 1017.54 1017.61 1017.67 1017.92 1018.32 1018.72 1019.16 1019.44 1019.66 1020.00 1020.25 1020.65 1021.15 1021.23 1021.19 1021.24 1021.40 1021.34 1021.38 1021.40 1021.51 1021.63 1022.09 1022.18 1022.57 1022.86 1023.16 1023.30 1023.44 1023.50 1023.33 1023.45 1023.17 1022.63 1022.35 1022.33 1022.25 1022.32 1022.35 1022.36 1022.41
1017.22 1017.65 1017.81 1018.04 1018.22 1018.41 1018.91 1019.13 1019.49 1020.05 1020.24 1020.48 1020.59 1020.92 1021.33 1021.72 1021.93 1022.01 1022.20 1022.47 1022.38 1022.54 1022.47 1022.49 1022.62 1022.78 1023.01 1023.19 1023.69 1023.87 1024.23 1024.29 1024.36 1024.44 1024.15 1023.55 1023.20 1022.98 1022.89 1023.00 1023.12 1023.25 1023.31
1016.95 1017.60 1017.95 1018.43 1018.67 1018.96 1019.30 1019.62 1019.81 1020.21 1020.58 1020.91 1021.05 1021.26 1021.51 1021.95 1022.20 1022.45 1022.71 1022.89 1022.83 1022.94 1022.98 1022.86 1023.23 1023.39 1023.56 1023.85 1024.21 1024.62 1024.89 1025.22 1025.36 1025.28 1025.17 1024.69 1024.36 1024.07 1023.84 1023.91 1024.00 1024.10 1024.09
1016.80 1017.38 1018.09 1018.53 1019.06 1019.47 1019.80 1020.17 1020.32 1020.41 1020.77 1021.31 1021.52 1021.81 1021.87 1022.44 1022.94 1023.01 1023.35 1023.31 1023.45 1023.54 1023.40 1023.65 1024.06 1024.11 1024.44 1024.97 1025.22 1025.44 1025.92 1026.20 1026.38 1026.47 1026.28 1025.91 1025.50 1025.21 1025.02 1024.75 1024.88 1024.99 1025.06
1016.63 1017.29 1018.11 1018.69 1019.24 1019.74 1020.19 1020.64 1020.93 1021.11 1021.24 1021.57 1022.08 1022.39 1022.56 1022.76 1023.06 1023.31 1023.72 1024.01 1024.33 1024.29 1024.35 1024.43 1024.95 1025.17 1025.57 1025.92 1026.33 1026.68 1026.97 1027.11 1027.37 1027.51 1027.51 1027.34 1026.75 1026.33 1026.09 1026.03 1025.78 1025.91 1025.88
1016.56 1017.12 1017.98 1018.78 1019.50 1020.01 1020.61 1021.16 1021.50 1021.60 1021.81 1022.06 1022.47 1022.88 1022.95 1023.08 1023.34 1023.64 1024.11 1024.60 1024.87 1024.84 1024.82 1025.08 1025.56 1025.79 1026.20 1026.73 1027.25 1027.61 1027.81 1028.06 1028.30 1028.51 1028.34 1028.39 1028.32 1027.59 1027.35 1027.22 1026.70 1027.01 1026.92
1016.66 1017.21 1018.09 1018.83 1019.56 1020.45 1021.00 1021.59 1021.96 1022.35 1022.47 1022.63 1022.84 1023.15 1023.46 1023.52 1023.71 1024.09 1024.52 1025.05 1025.28 1025.26 1025.48 1025.74 1026.12 1026.64 1027.16 1027.57 1028.07 1028.49 1028.67 1028.86 1029.13 1029.07 1029.05 1029.23 1029.27 1029.07 1028.66 1028.27 1028.08 1027.99 1028.13
1016.59 1017.15 1018.18 1019.15 1019.88 1020.63 1021.38 1022.03 1022.51 1022.84 1023.10 1023.24 1023.39 1023.67 1023.88 1024.05 1024.18 1024.45 1025.08 1025.50 1025.55 1025.79 1026.07 1026.07 1026.94 1027.07 1027.86 1028.40 1028.80 1029.23 1029.53 1029.73 1029.76 1029.74 1029.87 1029.93 1029.89 1029.91 1029.82 1029.51 1029.30 1029.10 1029.03
1016.91 1017.55 1018.33 1019.31 1020.14 1021.01 1021.75 1022.43 1023.06 1023.41 1023.73 1023.91 1023.93 1024.15 1024.32 1024.54 1024.74 1024.96 1025.46 1025.78 1025.93 1026.07 1026.63 1026.89 1027.29 1028.01 1028.45 1028.78 1029.39 1029.98 1030.35 1030.51 1030.53 1030.62 1030.62 1030.43 1030.50 1030.53 1030.54 1030.57 1030.51 1030.30 1029.84
1017.32 1017.88 1018.63 1019.45 1020.37 1021.05 1021.82 1022.88 1023.47 1024.00 1024.41 1024.57 1024.51 1024.63 1024.80 1024.99 1025.18 1025.38 1025.79 1026.12 1026.28 1026.44 1027.00 1027.21 1027.77 1028.43 1029.25 1029.52 1029.71 1030.84 1031.17 1031.19 1031.27 1031.29 1031.16 1031.17 1031.10 1031.14 1031.10 1031.15 1031.19 1031.10 1030.91
1016.95 1017.86 1018.81 1019.55 1020.45 1021.06 1021.71 1022.73 1023.32 1024.17 1024.88 1025.00 1025.04 1025.16 1025.18 1025.38 1025.67 1025.85 1026.20 1026.65 1026.81 1027.02 1027.52 1027.72 1027.89 1028.83 1029.63 1029.67 1029.95 1030.53 1031.69 1032.00 1031.79 1031.71 1031.72 1031.65 1031.93 1031.76 1031.66 1031.66 1031.67 1031.62 1031.57
1016.53 1017.52 1018.51 1019.51 1020.34 1021.17 1021.88 1022.65 1023.67 1024.36 1025.11 1025.41 1025.61 1025.84 1025.87 1025.94 1026.17 1026.42 1026.73 1026.97 1027.22 1027.30 1027.73 1028.05 1028.23 1028.45 1029.41 1030.01 1029.79 1029.96 1031.27 1031.55 1031.97 1032.10 1032.16 1032.19 1032.23 1032.25 1032.15 1032.02 1031.99 1031.96 1031.95
1016.87 1017.59 1018.54 1019.51 1020.39 1021.31 1022.00 1022.57 1023.22 1023.89 1024.67 1025.26 1025.64 1026.06 1026.32 1026.45 1026.65 1026.87 1027.01 1027.24 1027.45 1027.61 1027.85 1028.02 1028.31 1028.60 1028.93 1029.76 1030.10 1030.28 1030.25 1030.63 1031.61 1032.42 1032.44 1032.41 1032.39 1032.46 1032.48 1032.41 1032.33 1032.24 1032.17
1016.84 1017.83 1018.73 1019.49 1020.39 1021.24 1021.98 1022.51 1023.26 1024.11 1024.82 1025.26 1025.80 1026.23 1026.59 1026.86 1026.98 1027.18 1027.29 1027.59 1027.85 1028.06 1028.24 1028.33 1028.58 1028.76 1028.95 1029.56 1029.84 1030.49 1030.78 1031.17 1031.43 1031.90 1032.60 1032.71 1032.57 1032.63 1032.61 1032.65 1032.64 1032.55 1032.39
1017.28 1018.04 1019.08 1019.95 1020.70 1021.35 1022.11 1022.79 1023.41 1024.05 1024.78 1025.47 1026.05 1026.42 1026.82 1027.15 1027.39 1027.54 1027.56 1027.78 1028.03 1028.20 1028.47 1028.70 1028.94 1029.18 1029.41 1029.74 1030.06 1030.41 1030.88 1031.41 1032.03 1032.34 1032.94 1033.27 1033.43 1032.95 1032.71 1032.66 1032.71 1032.75 1032.60
Wind_Speed
1 4 6 10 9 8 5 9 10 11 13 14 13 14 16 16 15 15 17 16 18 18 19 20 21 21 22 21 20 20 21 21 20 19 16 16 17 19 19 17 14 11 21
2 5 6 8 12 11 8 9 11 12 14 14 14 16 17 16 16 16 17 18 19 20 20 21 21 21 19 19 19 20 20 20 19 16 13 11 14 17 19 16 14 14 18
2 6 7 10 13 13 12 12 12 13 14 15 15 18 18 17 18 17 17 18 19 21 21 21 19 17 16 17 19 21 20 19 17 13 11 5 9 17 18 15 16 16 17
3 6 6 15 15 13 12 13 14 15 16 16 17 18 19 19 19 18 18 18 20 21 20 20 18 17 17 20 21 21 20 19 17 13 6 5 9 17 17 16 15 14 14
2 5 2 12 15 16 15 16 16 17 19 20 19 18 18 20 17 20 20 19 21 21 18 18 17 20 22 22 23 22 20 19 16 11 7 6 5 13 16 16 14 14 12
2 4 6 13 17 18 17 17 19 19 19 21 20 20 21 20 20 20 19 18 19 19 18 17 18 22 23 23 22 21 20 17 14 9 7 7 6 13 15 15 15 17 17
3 4 6 14 17 18 19 18 17 19 20 18 18 17 19 20 20 20 20 19 18 18 18 18 20 23 22 22 22 21 19 17 9 8 7 6 6 15 14 14 14 15 15
4 5 7 13 15 19 20 20 20 20 20 19 18 17 17 19 19 19 17 18 18 18 18 19 23 22 22 22 22 21 19 16 10 8 7 5 10 14 15 15 15 13 14
4 4 7 8 12 17 19 20 20 21 21 20 19 18 17 18 18 18 17 17 18 18 19 20 21 22 22 22 22 22 21 20 11 7 7 4 13 14 15 14 15 15 13
4 3 7 8 7 8 8 18 20 20 20 19 19 18 17 16 17 18 17 18 18 18 19 20 21 22 21 21 21 20 20 21 13 11 8 7 18 18 18 18 16 17 15
5 4 4 7 7 8 9 10 15 19 20 19 16 16 11 6 6 8 15 18 19 19 19 20 21 22 22 22 21 20 19 8 11 9 7 16 21 21 21 20 20 20 20
8 6 4 6 7 7 7 7 6 8 6 7 7 8 4 6 8 10 12 17 18 19 19 20 19 19 14 7 7 14 7 9 10 9 8 21 23 21 19 20 21 22 22
8 5 5 6 5 7 6 4 4 3 4 4 7 6 6 6 4 4 4 3 4 7 4 7 8 7 9 8 8 8 9 9 7 7 13 22 22 22 19 23 24 24 25
12 8 6 5 6 6 4 4 5 4 4 4 5 6 6 4 5 5 4 3 4 3 6 7 6 9 11 12 11 11 11 8 6 6 12 21 21 23 24 25 24 24 25
13 11 8 7 7 6 7 4 4 5 5 4 5 5 5 5 5 5 4 5 5 4 6 7 7 8 11 11 10 12 11 10 10 6 6 19 21 21 23 23 24 25 24
13 12 10 9 8 8 6 6 5 4 5 5 5 5 6 5 6 6 5 5 5 4 4 7 6 8 8 9 11 10 9 9 9 9 7 8 21 22 22 21 21 22 23
11 12 12 11 8 9 7 6 4 4 5 5 5 5 6 5 6 6 6 6 4 4 7 7 7 8 9 8 10 9 8 8 8 8 7 7 8 20 22 20 20 22 22
12 13 12 10 10 9 7 5 4 4 4 5 5 5 6 7 7 7 6 5 4 5 5 6 6 8 7 8 6 6 6 7 8 7 7 6 6 7 13 21 20 20 20
13 14 12 11 10 10 9 6 5 6 5 4 4 4 6 6 6 7 6 4 5 5 5 6 5 6 9 7 8 6 5 5 6 6 8 8 9 7 6 17 19 19 18
11 12 13 10 11 10 8 7 5 5 4 4 4 4 6 5 6 7 6 6 4 7 6 5 7 5 4 6 9 7 5 5 5 5 5 6 7 7 6 7 6 8 17
10 12 13 13 11 10 8 6 5 4 3 4 4 6 6 6 6 6 5 5 4 7 5 6 4 8 5 3 5 6 5 5 6 5 5 5 6 6 7 6 4 4 5
14 13 12 13 12 9 7 4 4 4 3 3 3 5 5 6 6 6 6 5 5 6 6 5 3 4 3 3 4 3 3 2 3 4 3 5 6 4 5 6 6 5 5
16 15 14 14 13 9 9 8 6 6 4 3 3 3 3 5 6 6 6 5 5 5 5 5 5 6 4 4 5 4 3 3 2 1 3 3 4 4 4 5 5 5 5
12 12 13 13 13 10 11 9 12 6 8 3 3 3 4 5 6 5 6 5 6 4 6 5 4 4 4 5 2 5 5 4 4 2 1 1 1 5 4 4 5 5 5
13 12 12 13 12 12 10 11 8 7 4 4 4 7 6 4 5 5 6 6 6 4 5 6 6 6 3 4 3 2 4 4 4 3 1 2 2 3 2 3 3 4 5
12 12 11 11 8 11 9 9 8 9 9 8 6 6 4 3 3 4 5 5 5 5 5 5 5 6 5 5 4 4 3 3 2 3 2 1 2 3 2 1 2 2 3
Wind_Direction
184 288 274 196 171 175 164 137 131 119 123 118 118 109 104 102 100 105 109 111 106 104 104 103 101 98 98 96 93 94 94 94 90 84 79 78 87 83 88 82 78 81 81
327 285 275 213 165 164 150 135 131 128 120 115 116 115 106 104 104 100 103 103 104 103 102 99 97 96 97 95 95 96 93 92 90 84 76 74 82 86 83 79 82 85 82
313 318 292 192 154 148 144 134 127 124 127 118 114 108 107 104 99 98 99 102 101 93 88 90 92 89 96 103 100 98 93 87 81 75 71 69 86 92 87 82 85 93 93
327 313 294 166 150 155 140 131 124 122 118 122 123 112 109 99 90 91 95 94 93 89 85 92 85 83 97 104 100 95 86 77 65 55 48 49 89 93 91 86 76 87 99
24 307 213 147 146 144 136 128 120 121 116 113 110 116 117 103 99 90 86 89 87 82 82 85 80 91 95 95 96 91 84 74 62 55 43 50 56 92 87 80 72 82 100
25 325 97 128 138 132 123 120 116 113 109 105 102 102 106 110 106 104 94 87 88 85 89 88 94 97 94 97 91 87 78 69 61 47 38 59 71 90 90 87 81 80 87
43 1 97 111 129 129 122 113 112 107 102 97 101 99 99 97 95 95 98 95 96 99 95 90 99 95 94 92 89 82 75 68 57 47 34 25 87 88 89 88 86 82 81
55 19 51 92 104 114 112 113 105 103 102 104 100 97 100 100 100 101 103 105 102 96 94 91 95 95 91 89 85 79 69 61 50 36 32 25 76 83 80 79 81 83 84
76 42 74 54 84 100 106 107 104 100 96 94 95 96 94 101 103 105 106 102 99 98 96 95 95 96 94 91 84 76 67 58 52 42 34 32 68 75 77 81 80 81 80
124 63 91 85 73 75 89 108 107 104 103 102 100 94 89 89 97 99 97 99 102 101 97 94 96 92 88 85 81 73 67 57 50 43 44 64 72 71 72 74 74 68 66
152 131 94 102 97 95 97 103 108 114 116 114 106 93 73 64 51 68 94 97 97 98 99 98 94 93 89 83 76 70 62 55 59 45 33 61 65 64 62 67 63 62 60
167 151 135 123 113 99 105 85 75 101 105 114 109 101 83 81 82 74 77 88 93 94 95 96 94 90 81 76 69 61 57 59 57 50 43 55 59 57 60 66 64 64 61
160 154 158 131 109 109 113 102 94 85 94 102 103 107 102 92 80 69 66 52 63 68 73 83 76 67 80 85 78 78 69 60 59 53 46 55 59 55 62 71 70 64 61
164 159 148 126 116 103 106 107 114 115 104 101 101 105 114 103 92 89 80 63 76 68 69 70 75 81 75 78 81 76 69 62 54 56 43 54 56 54 57 69 69 66 61
162 159 149 132 126 119 107 102 109 112 105 106 97 96 107 97 100 97 80 80 68 69 77 76 76 81 78 75 74 77 71 64 57 49 36 57 60 57 55 57 64 63 59
159 156 145 135 127 124 115 112 109 102 106 99 91 101 90 106 108 96 86 76 70 65 58 75 73 82 78 81 72 69 68 68 62 51 42 32 58 57 57 53 60 57 55
161 143 144 133 129 123 113 107 96 112 100 104 104 92 94 88 94 99 96 83 74 66 84 85 77 82 84 81 78 72 71 59 65 61 51 42 33 53 58 53 60 58 53
147 145 145 141 129 119 108 97 96 81 90 96 95 96 91 94 96 95 99 91 86 80 85 85 86 90 85 87 81 67 66 73 66 59 62 55 47 40 43 56 55 58 52
151 142 134 132 128 119 105 95 87 85 85 85 85 93 96 89 87 100 100 92 89 85 74 99 69 91 101 92 93 73 58 59 62 67 62 57 58 51 43 51 47 51 47
141 136 133 132 127 117 106 98 81 81 68 66 84 87 95 96 96 102 98 96 91 98 88 81 97 57 84 99 93 74 58 54 56 55 59 64 58 53 51 47 31 21 42
140 139 142 136 136 133 129 124 114 112 91 72 77 93 92 94 93 99 100 95 77 96 104 109 100 101 69 63 98 68 43 48 53 49 51 48 47 41 47 44 39 26 14
153 147 144 142 144 139 134 109 114 120 74 87 73 76 87 94 93 98 101 100 99 105 91 92 101 114 90 17 119 104 130 28 38 45 58 78 59 36 37 48 41 36 24
156 152 147 147 144 139 127 113 96 93 73 77 65 82 72 93 93 104 104 109 100 98 103 102 111 110 126 34 60 131 125 169 142 308 46 58 62 42 33 28 27 28 30
153 145 140 143 143 140 143 136 150 147 154 149 123 117 102 99 100 99 101 98 100 101 101 102 97 111 122 126 88 46 58 114 147 150 359 28 12 38 49 19 2 13 5
144 141 141 142 147 147 148 151 149 137 103 106 111 120 115 104 105 108 105 103 97 90 88 94 86 80 78 109 109 125 62 60 61 105 150 333 354 8 48 11 8 360 5
141 135 136 137 134 143 143 146 148 141 141 140 140 132 122 107 101 103 106 103 105 103 98 94 90 86 91 87 88 81 105 121 100 92 91 351 271 299 307 333 359 17 8